1 Oct
2006
1 Oct
'06
10:35 p.m.
ISS 1 25544U 98067A 06274.32903458 .00016984 00000-0 10845-3 0 7776 2 25544 051.6376 000.6836 0012830 046.1444 077.7582 15.76409295449900
6655
Age (days ago)
6655
Last active (days ago)
0 comments
1 participants
participants (1)
-
Dave Larsen PhD